Time,TemperatureF,DewpointF,PressureIn,WindDirection,WindDirectionDegrees,WindSpeedMPH,WindSpeedGustMPH,Humidity,HourlyPrecipIn,Conditions,Clouds,dailyrainin,SoftwareType,DateUTC
2013-08-07 00:00:00,75.7,75.4,30.00,WNW,292,0.9,1.3,99,0.00,,,0.00,WUHU21623XXSP,2013-08-07 07:00:00,
2013-08-07 00:05:00,75.6,75.3,29.99,SW,225,1.8,1.8,99,0.00,,,0.00,WUHU21623XXSP,2013-08-07 07:05:00,
2013-08-07 00:10:00,75.7,75.6,29.99,SW,225,0.9,1.8,99,0.00,,,0.00,WUHU21623XXSP,2013-08-07 07:10:00,
2013-08-07 00:15:00,75.7,75.4,29.99,SW,225,0.0,4.0,99,0.00,,,0.00,WUHU21623XXSP,2013-08-07 07:15:00,
2013-08-07 00:20:00,75.6,75.3,29.99,SW,225,1.6,4.0,99,0.00,,,0.00,WUHU21623XXSP,2013-08-07 07:20:00,
2013-08-07 00:26:00,75.7,75.4,29.99,WNW,292,0.0,1.6,99,0.00,,,0.00,WUHU21623XXSP,2013-08-07 07:26:00,
2013-08-07 00:31:00,75.9,75.6,29.99,West,270,0.9,0.9,99,0.00,,,0.00,WUHU21623XXSP,2013-08-07 07:31:00,
2013-08-07 00:36:00,75.9,75.6,29.99,WSW,247,0.9,3.1,99,0.00,,,0.00,WUHU21623XXSP,2013-08-07 07:36:00,
2013-08-07 00:41:00,75.9,75.6,30.00,SSW,202,0.9,3.1,99,0.00,,,0.00,WUHU21623XXSP,2013-08-07 07:41:00,
2013-08-07 00:46:00,75.7,75.4,30.00,WNW,292,0.0,0.9,99,0.00,,,0.00,WUHU21623XXSP,2013-08-07 07:46:00,
2013-08-07 00:51:00,75.9,75.6,30.00,SW,225,0.9,3.1,99,0.00,,,0.00,WUHU21623XXSP,2013-08-07 07:51:00,
2013-08-07 00:56:00,75.7,75.4,30.00,WNW,292,3.6,4.7,99,0.00,,,0.00,WUHU21623XXSP,2013-08-07 07:56:00,
2013-08-07 01:01:00,75.7,75.4,30.00,West,270,0.0,4.7,99,0.00,,,0.00,WUHU21623XXSP,2013-08-07 08:01:00,
2013-08-07 01:06:00,76.3,76.0,30.00,West,270,2.0,2.0,99,0.00,,,0.00,WUHU21623XXSP,2013-08-07 08:06:00,
2013-08-07 01:11:00,76.5,76.2,30.00,West,270,0.0,3.4,99,0.00,,,0.00,WUHU21623XXSP,2013-08-07 08:11:00,
2013-08-07 01:16:00,76.3,76.0,30.00,North,0,0.7,3.4,99,0.00,,,0.00,WUHU21623XXSP,2013-08-07 08:16:00,
2013-08-07 01:21:00,76.6,76.3,30.00,WSW,247,2.0,2.0,99,0.00,,,0.00,WUHU21623XXSP,2013-08-07 08:21:00,
2013-08-07 01:26:00,76.8,76.5,30.00,West,270,3.6,3.6,99,0.00,,,0.00,WUHU21623XXSP,2013-08-07 08:26:00,
2013-08-07 01:31:00,76.6,76.3,29.99,WNW,292,1.8,3.6,99,0.00,,,0.00,WUHU21623XXSP,2013-08-07 08:31:00,
2013-08-07 01:36:00,76.8,76.5,30.00,NW,315,2.9,3.6,99,0.00,,,0.00,WUHU21623XXSP,2013-08-07 08:36:00,
2013-08-07 01:41:00,77.2,76.9,30.00,WNW,292,4.9,4.9,99,0.00,,,0.00,WUHU21623XXSP,2013-08-07 08:41:00,
2013-08-07 01:46:00,77.0,76.7,30.00,WSW,247,2.9,4.9,99,0.00,,,0.00,WUHU21623XXSP,2013-08-07 08:46:00,
2013-08-07 01:51:00,77.2,76.9,30.00,WNW,292,0.0,2.9,99,0.00,,,0.00,WUHU21623XXSP,2013-08-07 08:51:00,
2013-08-07 01:56:00,77.2,76.7,30.00,West,270,0.0,3.6,99,0.00,,,0.00,WUHU21623XXSP,2013-08-07 08:56:00,
2013-08-07 02:01:00,77.4,77.1,29.99,WNW,292,0.0,3.6,99,0.00,,,0.00,WUHU21623XXSP,2013-08-07 09:01:00,
2013-08-07 02:06:00,77.7,77.4,30.00,NW,315,3.8,3.8,99,0.00,,,0.00,WUHU21623XXSP,2013-08-07 09:06:00,
2013-08-07 02:11:00,77.4,77.1,30.00,SSW,202,0.0,3.8,99,0.00,,,0.00,WUHU21623XXSP,2013-08-07 09:11:00,
2013-08-07 02:16:00,77.5,77.2,30.00,WSW,247,1.3,1.3,99,0.00,,,0.00,WUHU21623XXSP,2013-08-07 09:16:00,
2013-08-07 02:21:00,77.7,77.4,30.00,WNW,292,0.0,2.0,99,0.00,,,0.00,WUHU21623XXSP,2013-08-07 09:21:00,
2013-08-07 02:26:00,77.5,77.4,30.00,NNW,337,0.0,2.0,99,0.00,,,0.00,WUHU21623XXSP,2013-08-07 09:26:00,
2013-08-07 02:31:00,77.5,77.2,30.00,SSW,202,2.2,2.2,99,0.00,,,0.00,WUHU21623XXSP,2013-08-07 09:31:00,
2013-08-07 02:36:00,77.9,77.6,30.00,NNW,337,0.0,2.2,99,0.00,,,0.00,WUHU21623XXSP,2013-08-07 09:36:00,
2013-08-07 02:41:00,77.7,77.4,30.00,NW,315,0.0,3.4,99,0.00,,,0.00,WUHU21623XXSP,2013-08-07 09:41:00,
2013-08-07 02:46:00,77.9,77.6,30.00,West,270,1.6,3.4,99,0.00,,,0.00,WUHU21623XXSP,2013-08-07 09:46:00,
2013-08-07 02:51:00,77.9,77.6,30.00,West,270,0.0,1.6,99,0.00,,,0.00,WUHU21623XXSP,2013-08-07 09:51:00,
2013-08-07 02:56:00,78.6,78.3,30.00,WNW,292,3.1,3.1,99,0.00,,,0.00,WUHU21623XXSP,2013-08-07 09:56:00,
2013-08-07 03:01:00,78.1,77.8,30.00,NW,315,0.0,3.1,99,0.00,,,0.00,WUHU21623XXSP,2013-08-07 10:01:00,
2013-08-07 03:06:00,78.1,77.8,30.00,WNW,292,2.9,2.9,99,0.00,,,0.00,WUHU21623XXSP,2013-08-07 10:06:00,
2013-08-07 03:11:00,78.4,78.1,30.00,West,270,0.0,2.9,99,0.00,,,0.00,WUHU21623XXSP,2013-08-07 10:11:00,
2013-08-07 03:16:00,77.9,77.6,30.00,WNW,292,2.5,3.1,99,0.00,,,0.00,WUHU21623XXSP,2013-08-07 10:16:00,
2013-08-07 03:21:00,77.9,77.8,30.00,WNW,292,1.6,4.0,99,0.00,,,0.00,WUHU21623XXSP,2013-08-07 10:21:00,
2013-08-07 03:26:00,78.4,78.1,30.00,WSW,247,0.9,4.0,99,0.00,,,0.00,WUHU21623XXSP,2013-08-07 10:26:00,
2013-08-07 03:31:00,78.6,78.3,30.00,WNW,292,0.0,3.4,99,0.00,,,0.00,WUHU21623XXSP,2013-08-07 10:31:00,
2013-08-07 03:36:00,78.4,77.8,30.00,WSW,247,0.0,0.9,99,0.00,,,0.00,WUHU21623XXSP,2013-08-07 10:36:00,
2013-08-07 03:41:00,78.4,78.0,30.00,SW,225,2.0,2.0,99,0.00,,,0.00,WUHU21623XXSP,2013-08-07 10:41:00,
2013-08-07 03:46:00,78.6,78.3,30.00,WNW,292,3.1,3.1,99,0.00,,,0.00,WUHU21623XXSP,2013-08-07 10:46:00,
2013-08-07 03:51:00,78.4,78.1,30.00,WNW,292,1.3,3.1,99,0.00,,,0.00,WUHU21623XXSP,2013-08-07 10:51:00,
2013-08-07 03:56:00,78.6,78.3,30.00,SW,225,0.0,1.3,99,0.00,,,0.00,WUHU21623XXSP,2013-08-07 10:56:00,
2013-08-07 04:01:00,79.0,78.7,30.00,NW,315,0.0,0.0,99,0.00,,,0.00,WUHU21623XXSP,2013-08-07 11:01:00,
2013-08-07 04:06:00,79.2,78.8,30.00,NNW,337,0.0,0.0,99,0.00,,,0.00,WUHU21623XXSP,2013-08-07 11:06:00,
2013-08-07 04:11:00,78.6,78.8,30.00,North,0,0.0,0.0,99,0.00,,,0.00,WUHU21623XXSP,2013-08-07 11:11:00,
2013-08-07 04:16:00,79.0,78.7,30.00,SW,225,0.0,0.0,99,0.00,,,0.00,WUHU21623XXSP,2013-08-07 11:16:00,
2013-08-07 04:21:00,79.9,79.6,30.00,West,270,0.0,0.0,99,0.00,,,0.00,WUHU21623XXSP,2013-08-07 11:21:00,
2013-08-07 04:26:00,79.7,79.4,30.00,WNW,292,0.0,0.0,99,0.00,,,0.00,WUHU21623XXSP,2013-08-07 11:26:00,
2013-08-07 04:31:00,80.2,79.2,30.00,NW,315,0.0,0.0,99,0.00,,,0.00,WUHU21623XXSP,2013-08-07 11:31:00,
2013-08-07 04:36:00,79.7,79.2,30.00,NW,315,0.0,0.0,99,0.00,,,0.00,WUHU21623XXSP,2013-08-07 11:36:00,
2013-08-07 04:41:00,79.3,79.0,29.99,NW,315,0.0,0.0,99,0.00,,,0.00,WUHU21623XXSP,2013-08-07 11:41:00,
2013-08-07 04:46:00,79.9,79.6,29.99,NW,315,0.0,0.0,99,0.00,,,0.00,WUHU21623XXSP,2013-08-07 11:46:00,
2013-08-07 04:51:00,79.5,79.2,30.00,NW,315,0.0,0.0,99,0.00,,,0.00,WUHU21623XXSP,2013-08-07 11:51:00,
2013-08-07 04:56:00,79.7,79.4,30.00,NW,315,0.0,0.0,99,0.00,,,0.00,WUHU21623XXSP,2013-08-07 11:56:00,
2013-08-07 05:01:00,79.5,79.2,30.00,NW,315,0.0,0.0,99,0.00,,,0.00,WUHU21623XXSP,2013-08-07 12:01:00,
2013-08-07 05:06:00,79.3,79.0,30.00,NW,315,0.0,0.0,99,0.00,,,0.00,WUHU21623XXSP,2013-08-07 12:06:00,
2013-08-07 05:11:00,80.1,79.7,30.00,NW,315,0.0,0.0,99,0.00,,,0.00,WUHU21623XXSP,2013-08-07 12:11:00,
2013-08-07 05:16:00,79.7,79.4,30.00,NNW,337,0.0,0.0,99,0.00,,,0.00,WUHU21623XXSP,2013-08-07 12:16:00,
2013-08-07 05:21:00,79.5,79.2,30.00,SSW,202,0.0,0.0,99,0.00,,,0.00,WUHU21623XXSP,2013-08-07 12:21:00,
2013-08-07 05:26:00,79.7,78.8,30.00,WSW,247,0.0,0.0,99,0.00,,,0.00,WUHU21623XXSP,2013-08-07 12:26:00,
2013-08-07 05:31:00,79.9,79.4,29.99,West,270,0.0,0.0,99,0.00,,,0.00,WUHU21623XXSP,2013-08-07 12:31:00,
2013-08-07 05:36:00,79.9,79.6,30.00,South,180,0.0,0.0,99,0.00,,,0.00,WUHU21623XXSP,2013-08-07 12:36:00,
2013-08-07 05:41:00,79.9,79.6,29.99,SE,135,0.0,0.0,99,0.00,,,0.00,WUHU21623XXSP,2013-08-07 12:41:00,
2013-08-07 05:46:00,79.3,79.0,30.00,East,90,0.0,0.0,99,0.00,,,0.00,WUHU21623XXSP,2013-08-07 12:46:00,
2013-08-07 05:51:00,79.3,79.0,30.00,East,90,0.0,0.0,99,0.00,,,0.00,WUHU21623XXSP,2013-08-07 12:51:00,
2013-08-07 05:56:00,79.7,79.4,29.99,East,90,0.0,0.0,99,0.00,,,0.00,WUHU21623XXSP,2013-08-07 12:56:00,
2013-08-07 06:01:00,78.4,78.1,29.99,East,90,0.0,0.0,99,0.00,,,0.00,WUHU21623XXSP,2013-08-07 13:01:00,
2013-08-07 06:06:00,77.5,77.2,29.99,East,90,0.0,0.0,99,0.00,,,0.00,WUHU21623XXSP,2013-08-07 13:06:00,
2013-08-07 06:11:00,76.8,76.5,30.00,ESE,112,0.0,0.0,99,0.00,,,0.00,WUHU21623XXSP,2013-08-07 13:11:00,
2013-08-07 06:16:00,77.0,76.7,30.00,ESE,112,0.0,0.0,99,0.00,,,0.00,WUHU21623XXSP,2013-08-07 13:16:00,
2013-08-07 06:21:00,76.8,76.5,30.00,ESE,112,0.0,0.0,99,0.00,,,0.00,WUHU21623XXSP,2013-08-07 13:21:00,
2013-08-07 06:26:00,76.8,76.5,30.00,ESE,112,0.0,0.0,99,0.00,,,0.00,WUHU21623XXSP,2013-08-07 13:26:00,
2013-08-07 06:31:00,77.4,77.1,29.99,ESE,112,0.0,0.0,99,0.00,,,0.00,WUHU21623XXSP,2013-08-07 13:31:00,
2013-08-07 06:36:00,77.2,76.9,29.99,ESE,112,0.0,0.0,99,0.00,,,0.00,WUHU21623XXSP,2013-08-07 13:36:00,
2013-08-07 06:41:00,76.8,76.5,29.99,East,90,0.0,0.0,99,0.00,,,0.00,WUHU21623XXSP,2013-08-07 13:41:00,
2013-08-07 06:46:00,77.0,76.7,30.00,SSE,157,0.0,0.0,99,0.00,,,0.00,WUHU21623XXSP,2013-08-07 13:46:00,
2013-08-07 06:51:00,77.0,76.7,30.00,SSE,157,0.0,0.0,99,0.00,,,0.00,WUHU21623XXSP,2013-08-07 13:51:00,
2013-08-07 06:56:00,77.0,76.7,30.00,SE,135,0.0,0.0,99,0.00,,,0.00,WUHU21623XXSP,2013-08-07 13:56:00,
2013-08-07 07:01:00,77.0,76.7,30.00,SE,135,0.0,0.0,99,0.00,,,0.00,WUHU21623XXSP,2013-08-07 14:01:00,
2013-08-07 07:06:00,76.8,76.9,30.00,SSE,157,0.0,0.0,99,0.00,,,0.00,WUHU21623XXSP,2013-08-07 14:06:00,
2013-08-07 07:11:00,77.2,76.5,30.00,South,180,0.0,0.0,99,0.00,,,0.00,WUHU21623XXSP,2013-08-07 14:11:00,
2013-08-07 07:16:00,77.2,76.9,30.00,NW,315,0.0,0.0,99,0.00,,,0.00,WUHU21623XXSP,2013-08-07 14:16:00,
2013-08-07 07:21:00,76.6,76.3,30.01,WNW,292,0.0,0.0,99,0.00,,,0.00,WUHU21623XXSP,2013-08-07 14:21:00,
2013-08-07 07:26:00,76.8,76.5,30.01,WNW,292,0.0,0.0,99,0.00,,,0.00,WUHU21623XXSP,2013-08-07 14:26:00,
2013-08-07 07:31:00,77.2,76.9,30.01,WNW,292,0.0,0.0,99,0.00,,,0.00,WUHU21623XXSP,2013-08-07 14:31:00,
2013-08-07 07:36:00,77.0,76.7,30.01,NNW,337,0.0,0.0,99,0.00,,,0.00,WUHU21623XXSP,2013-08-07 14:36:00,
2013-08-07 07:41:00,76.8,76.5,30.01,WNW,292,0.0,0.0,99,0.00,,,0.00,WUHU21623XXSP,2013-08-07 14:41:00,
2013-08-07 07:46:00,77.0,76.7,30.01,West,270,1.3,1.3,99,0.00,,,0.00,WUHU21623XXSP,2013-08-07 14:46:00,
2013-08-07 07:51:00,76.8,76.5,30.01,WNW,292,0.0,1.3,99,0.00,,,0.00,WUHU21623XXSP,2013-08-07 14:51:00,
2013-08-07 07:56:00,77.0,76.7,30.01,WNW,292,0.0,0.9,99,0.00,,,0.00,WUHU21623XXSP,2013-08-07 14:56:00,
2013-08-07 08:01:00,76.6,76.3,30.01,West,270,0.0,0.9,99,0.00,,,0.00,WUHU21623XXSP,2013-08-07 15:01:00,
2013-08-07 08:06:00,76.8,76.5,30.01,West,270,0.9,2.2,99,0.00,,,0.00,WUHU21623XXSP,2013-08-07 15:06:00,
2013-08-07 08:11:00,76.3,76.0,30.02,North,0,0.0,2.5,99,0.00,,,0.00,WUHU21623XXSP,2013-08-07 15:11:00,
2013-08-07 08:16:00,76.3,76.0,30.01,South,180,2.0,2.5,99,0.00,,,0.00,WUHU21623XXSP,2013-08-07 15:16:00,
2013-08-07 08:21:00,76.3,76.0,30.02,SE,135,0.0,4.5,99,0.00,,,0.00,WUHU21623XXSP,2013-08-07 15:21:00,
2013-08-07 08:26:00,76.1,75.8,30.02,WSW,247,2.0,4.5,99,0.00,,,0.00,WUHU21623XXSP,2013-08-07 15:26:00,
2013-08-07 08:31:00,75.9,75.6,30.02,SW,225,0.9,2.0,99,0.00,,,0.00,WUHU21623XXSP,2013-08-07 15:31:00,
2013-08-07 08:36:00,75.9,75.6,30.02,WNW,292,0.0,2.5,99,0.00,,,0.00,WUHU21623XXSP,2013-08-07 15:36:00,
2013-08-07 08:41:00,75.7,75.4,30.02,SE,135,0.0,2.5,99,0.00,,,0.00,WUHU21623XXSP,2013-08-07 15:41:00,
2013-08-07 08:46:00,75.4,75.4,30.02,SE,135,0.0,1.3,99,0.00,,,0.00,WUHU21623XXSP,2013-08-07 15:46:00,
2013-08-07 08:51:00,75.7,75.4,30.03,West,270,0.0,0.9,99,0.00,,,0.00,WUHU21623XXSP,2013-08-07 15:51:00,
2013-08-07 08:56:00,75.7,75.4,30.03,WSW,247,0.0,0.9,99,0.00,,,0.00,WUHU21623XXSP,2013-08-07 15:56:00,
2013-08-07 09:01:00,75.4,75.1,30.03,West,270,1.3,1.3,99,0.00,,,0.00,WUHU21623XXSP,2013-08-07 16:01:00,
2013-08-07 09:06:00,75.0,74.7,30.03,WNW,292,1.1,1.3,99,0.00,,,0.00,WUHU21623XXSP,2013-08-07 16:06:00,
2013-08-07 09:11:00,75.2,74.9,30.03,NW,315,0.0,1.6,99,0.00,,,0.00,WUHU21623XXSP,2013-08-07 16:11:00,
2013-08-07 09:16:00,75.0,74.7,30.03,SW,225,0.0,1.6,99,0.00,,,0.00,WUHU21623XXSP,2013-08-07 16:16:00,
2013-08-07 09:21:00,74.8,74.5,30.03,WNW,292,0.0,2.0,99,0.00,,,0.00,WUHU21623XXSP,2013-08-07 16:21:00,
2013-08-07 09:26:00,75.0,74.7,30.03,SSW,202,2.5,2.5,99,0.00,,,0.00,WUHU21623XXSP,2013-08-07 16:26:00,
2013-08-07 09:31:00,74.8,74.5,30.03,SW,225,1.3,2.5,99,0.00,,,0.00,WUHU21623XXSP,2013-08-07 16:31:00,
2013-08-07 09:36:00,74.5,74.2,30.03,South,180,2.5,2.5,99,0.00,,,0.00,WUHU21623XXSP,2013-08-07 16:36:00,
2013-08-07 09:42:00,74.5,74.2,30.03,SSW,202,2.0,2.5,99,0.00,,,0.00,WUHU21623XXSP,2013-08-07 16:42:00,
2013-08-07 09:47:00,74.3,74.0,30.04,South,180,2.0,2.0,99,0.00,,,0.00,WUHU21623XXSP,2013-08-07 16:47:00,
2013-08-07 09:52:00,74.5,74.2,30.04,West,270,1.3,2.0,99,0.00,,,0.00,WUHU21623XXSP,2013-08-07 16:52:00,
2013-08-07 09:57:00,73.9,73.6,30.04,WNW,292,1.1,2.7,99,0.00,,,0.00,WUHU21623XXSP,2013-08-07 16:57:00,
2013-08-07 10:02:00,74.1,73.8,30.04,NNW,337,0.0,2.7,99,0.00,,,0.00,WUHU21623XXSP,2013-08-07 17:02:00,
2013-08-07 10:07:00,74.1,73.8,30.04,East,90,0.9,2.0,99,0.00,,,0.00,WUHU21623XXSP,2013-08-07 17:07:00,
2013-08-07 10:12:00,73.9,73.6,30.04,WSW,247,0.0,2.0,99,0.00,,,0.00,WUHU21623XXSP,2013-08-07 17:12:00,
2013-08-07 10:17:00,73.9,73.6,30.04,NW,315,2.7,2.7,99,0.00,,,0.00,WUHU21623XXSP,2013-08-07 17:17:00,
2013-08-07 10:22:00,73.9,73.6,30.05,NNW,337,0.0,3.8,99,0.00,,,0.00,WUHU21623XXSP,2013-08-07 17:22:00,
2013-08-07 10:27:00,73.9,73.6,30.04,SW,225,0.0,3.8,99,0.00,,,0.00,WUHU21623XXSP,2013-08-07 17:27:00,
2013-08-07 10:32:00,73.9,73.6,30.04,NW,315,2.2,2.2,99,0.00,,,0.00,WUHU21623XXSP,2013-08-07 17:32:00,
2013-08-07 10:37:00,73.6,73.3,30.05,West,270,0.0,2.9,99,0.00,,,0.00,WUHU21623XXSP,2013-08-07 17:37:00,
2013-08-07 10:42:00,73.6,73.3,30.04,West,270,0.0,2.9,99,0.00,,,0.00,WUHU21623XXSP,2013-08-07 17:42:00,
2013-08-07 10:47:00,73.6,73.3,30.04,SSW,202,0.0,2.2,99,0.00,,,0.00,WUHU21623XXSP,2013-08-07 17:47:00,
2013-08-07 10:52:00,73.4,73.1,30.05,SW,225,3.6,3.6,99,0.00,,,0.00,WUHU21623XXSP,2013-08-07 17:52:00,
2013-08-07 10:57:00,73.4,73.1,30.05,WNW,292,2.0,3.6,99,0.00,,,0.00,WUHU21623XXSP,2013-08-07 17:57:00,
2013-08-07 11:02:00,73.2,72.9,30.05,WNW,292,3.1,3.1,99,0.00,,,0.00,WUHU21623XXSP,2013-08-07 18:02:00,
2013-08-07 11:07:00,73.2,72.9,30.05,WNW,292,0.0,3.4,99,0.00,,,0.00,WUHU21623XXSP,2013-08-07 18:07:00,
2013-08-07 11:12:00,73.2,72.6,30.05,NW,315,0.0,3.4,98,0.00,,,0.00,WUHU21623XXSP,2013-08-07 18:12:00,
2013-08-07 11:17:00,73.0,72.4,30.05,SE,135,0.0,0.0,98,0.00,,,0.00,WUHU21623XXSP,2013-08-07 18:17:00,
2013-08-07 11:22:00,73.0,72.1,30.05,WNW,292,2.9,2.9,97,0.00,,,0.00,WUHU21623XXSP,2013-08-07 18:22:00,
2013-08-07 11:27:00,72.7,71.5,30.04,WNW,292,0.0,2.9,96,0.00,,,0.00,WUHU21623XXSP,2013-08-07 18:27:00,
2013-08-07 11:32:00,72.9,71.6,30.05,WNW,292,1.8,1.8,96,0.00,,,0.00,WUHU21623XXSP,2013-08-07 18:32:00,
2013-08-07 11:37:00,72.9,71.2,30.05,WNW,292,1.3,1.8,94,0.00,,,0.00,WUHU21623XXSP,2013-08-07 18:37:00,
2013-08-07 11:42:00,72.9,71.0,30.05,ESE,112,0.0,1.3,94,0.00,,,0.00,WUHU21623XXSP,2013-08-07 18:42:00,
2013-08-07 11:47:00,72.9,70.7,30.05,WNW,292,0.9,0.9,93,0.00,,,0.00,WUHU21623XXSP,2013-08-07 18:47:00,
2013-08-07 11:52:00,72.7,70.2,30.05,West,270,0.0,0.9,92,0.00,,,0.00,WUHU21623XXSP,2013-08-07 18:52:00,
2013-08-07 11:57:00,72.7,69.9,30.05,East,90,1.3,1.3,91,0.00,,,0.00,WUHU21623XXSP,2013-08-07 18:57:00,
2013-08-07 12:02:00,72.9,69.8,30.05,NW,315,2.0,2.0,90,0.00,,,0.00,WUHU21623XXSP,2013-08-07 19:02:00,
2013-08-07 12:07:00,72.7,69.3,30.04,WSW,247,0.0,3.4,89,0.00,,,0.00,WUHU21623XXSP,2013-08-07 19:07:00,
2013-08-07 12:12:00,72.7,68.9,30.04,WNW,292,0.7,3.4,88,0.00,,,0.00,WUHU21623XXSP,2013-08-07 19:12:00,
2013-08-07 12:17:00,72.7,68.9,30.05,SSW,202,0.0,0.7,88,0.00,,,0.00,WUHU21623XXSP,2013-08-07 19:17:00,
2013-08-07 12:22:00,72.7,68.3,30.04,WNW,292,0.0,1.8,86,0.00,,,0.00,WUHU21623XXSP,2013-08-07 19:22:00,
2013-08-07 12:27:00,72.7,67.9,30.04,NNW,337,0.0,1.8,85,0.00,,,0.00,WUHU21623XXSP,2013-08-07 19:27:00,
2013-08-07 12:32:00,72.5,67.4,30.04,SSW,202,1.1,1.6,84,0.00,,,0.00,WUHU21623XXSP,2013-08-07 19:32:00,
2013-08-07 12:37:00,72.5,67.4,30.04,West,270,0.0,3.1,84,0.00,,,0.00,WUHU21623XXSP,2013-08-07 19:37:00,
2013-08-07 12:42:00,72.5,67.0,30.03,NW,315,0.0,3.1,83,0.00,,,0.00,WUHU21623XXSP,2013-08-07 19:42:00,
2013-08-07 12:47:00,72.5,67.0,30.03,SSE,157,1.1,1.1,82,0.00,,,0.00,WUHU21623XXSP,2013-08-07 19:47:00,
2013-08-07 12:52:00,72.3,65.8,30.03,SSW,202,1.3,1.3,80,0.00,,,0.00,WUHU21623XXSP,2013-08-07 19:52:00,
2013-08-07 12:57:00,72.9,66.0,30.03,SSE,157,0.0,1.3,79,0.00,,,0.00,WUHU21623XXSP,2013-08-07 19:57:00,
2013-08-07 13:02:00,72.7,65.1,30.03,North,0,3.4,3.4,77,0.00,,,0.00,WUHU21623XXSP,2013-08-07 20:02:00,
2013-08-07 13:07:00,72.7,63.9,30.03,SW,225,0.9,3.4,74,0.00,,,0.00,WUHU21623XXSP,2013-08-07 20:07:00,
2013-08-07 13:12:00,72.9,63.7,30.03,West,270,1.8,1.8,73,0.00,,,0.00,WUHU21623XXSP,2013-08-07 20:12:00,
2013-08-07 13:17:00,73.0,63.5,30.03,SW,225,7.2,7.2,72,0.00,,,0.00,WUHU21623XXSP,2013-08-07 20:17:00,
2013-08-07 13:22:00,73.0,63.2,30.03,WSW,247,1.3,7.2,71,0.00,,,0.00,WUHU21623XXSP,2013-08-07 20:22:00,
2013-08-07 13:27:00,73.0,62.8,30.03,WNW,292,0.7,1.6,70,0.00,,,0.00,WUHU21623XXSP,2013-08-07 20:27:00,
2013-08-07 13:32:00,73.0,61.9,30.03,South,180,0.0,3.1,68,0.00,,,0.00,WUHU21623XXSP,2013-08-07 20:32:00,
2013-08-07 13:37:00,73.0,61.4,30.03,WNW,292,1.6,3.1,67,0.00,,,0.00,WUHU21623XXSP,2013-08-07 20:37:00,
2013-08-07 13:42:00,73.0,60.5,30.03,West,270,3.8,3.8,65,0.00,,,0.00,WUHU21623XXSP,2013-08-07 20:42:00,
2013-08-07 13:47:00,73.2,58.9,30.03,South,180,2.2,4.9,61,0.00,,,0.00,WUHU21623XXSP,2013-08-07 20:47:00,
2013-08-07 13:52:00,73.4,58.6,30.02,WNW,292,3.6,4.9,60,0.00,,,0.00,WUHU21623XXSP,2013-08-07 20:52:00,
2013-08-07 13:57:00,73.2,58.5,30.02,SW,225,3.6,4.3,60,0.00,,,0.00,WUHU21623XXSP,2013-08-07 20:57:00,
2013-08-07 14:02:00,73.6,58.3,30.02,SW,225,5.8,5.8,59,0.00,,,0.00,WUHU21623XXSP,2013-08-07 21:02:00,
2013-08-07 14:07:00,73.6,57.3,30.02,SW,225,0.0,5.8,57,0.00,,,0.00,WUHU21623XXSP,2013-08-07 21:07:00,
2013-08-07 14:12:00,73.8,57.0,30.02,SW,225,6.0,6.0,56,0.00,,,0.00,WUHU21623XXSP,2013-08-07 21:12:00,
2013-08-07 14:17:00,73.6,56.8,30.03,SSW,202,1.6,6.0,56,0.00,,,0.00,WUHU21623XXSP,2013-08-07 21:17:00,
2013-08-07 14:22:00,73.6,56.8,30.03,ESE,112,3.4,3.8,56,0.00,,,0.00,WUHU21623XXSP,2013-08-07 21:22:00,
2013-08-07 14:27:00,73.6,55.8,30.02,WSW,247,1.1,3.8,54,0.00,,,0.00,WUHU21623XXSP,2013-08-07 21:27:00,
2013-08-07 14:32:00,73.6,56.3,30.03,WNW,292,2.9,7.4,55,0.00,,,0.00,WUHU21623XXSP,2013-08-07 21:32:00,
2013-08-07 14:37:00,73.4,56.1,30.02,WNW,292,1.6,7.4,55,0.00,,,0.00,WUHU21623XXSP,2013-08-07 21:37:00,
2013-08-07 14:42:00,73.4,55.6,30.02,SW,225,0.0,3.8,54,0.00,,,0.00,WUHU21623XXSP,2013-08-07 21:42:00,
2013-08-07 14:47:00,73.2,56.5,30.02,ESE,112,3.4,8.5,56,0.00,,,0.00,WUHU21623XXSP,2013-08-07 21:47:00,
2013-08-07 14:52:00,73.6,56.3,30.02,WNW,292,5.8,8.9,55,0.00,,,0.00,WUHU21623XXSP,2013-08-07 21:52:00,
2013-08-07 14:57:00,73.4,55.6,30.02,NE,45,0.0,8.9,54,0.00,,,0.00,WUHU21623XXSP,2013-08-07 21:57:00,
2013-08-07 15:02:00,73.2,56.6,30.02,West,270,2.5,5.8,56,0.00,,,0.00,WUHU21623XXSP,2013-08-07 22:02:00,
2013-08-07 15:07:00,73.2,56.5,30.01,West,270,4.5,4.5,56,0.00,,,0.00,WUHU21623XXSP,2013-08-07 22:07:00,
2013-08-07 15:12:00,73.2,57.0,30.02,WNW,292,2.0,4.5,57,0.00,,,0.00,WUHU21623XXSP,2013-08-07 22:12:00,
2013-08-07 15:17:00,73.2,57.0,30.02,WNW,292,1.3,4.5,57,0.00,,,0.00,WUHU21623XXSP,2013-08-07 22:17:00,
2013-08-07 15:22:00,73.0,57.3,30.02,NW,315,6.9,6.9,58,0.00,,,0.00,WUHU21623XXSP,2013-08-07 22:22:00,
2013-08-07 15:27:00,72.9,57.1,30.02,SW,225,6.7,6.9,58,0.00,,,0.00,WUHU21623XXSP,2013-08-07 22:27:00,
2013-08-07 15:32:00,73.0,57.8,30.02,SW,225,3.4,6.7,59,0.00,,,0.00,WUHU21623XXSP,2013-08-07 22:32:00,
2013-08-07 15:37:00,73.0,57.1,30.01,West,270,2.5,3.4,58,0.00,,,0.00,WUHU21623XXSP,2013-08-07 22:37:00,
2013-08-07 15:42:00,73.0,57.8,30.01,West,270,3.1,3.1,59,0.00,,,0.00,WUHU21623XXSP,2013-08-07 22:42:00,
2013-08-07 15:47:00,73.0,56.8,30.01,NW,315,2.2,3.1,57,0.00,,,0.00,WUHU21623XXSP,2013-08-07 22:47:00,
2013-08-07 15:52:00,73.0,56.8,30.01,SW,225,3.6,3.6,57,0.00,,,0.00,WUHU21623XXSP,2013-08-07 22:52:00,
2013-08-07 15:57:00,73.2,57.0,30.01,SSW,202,3.8,3.8,57,0.00,,,0.00,WUHU21623XXSP,2013-08-07 22:57:00,
2013-08-07 16:02:00,73.2,57.0,30.00,SW,225,4.3,4.3,57,0.00,,,0.00,WUHU21623XXSP,2013-08-07 23:02:00,
2013-08-07 16:07:00,73.2,57.5,30.00,SSE,157,5.1,5.1,58,0.00,,,0.00,WUHU21623XXSP,2013-08-07 23:07:00,
2013-08-07 16:12:00,73.4,57.1,30.00,SSW,202,0.0,5.1,57,0.00,,,0.00,WUHU21623XXSP,2013-08-07 23:12:00,
2013-08-07 16:17:00,73.2,57.0,30.00,SSW,202,1.1,5.1,57,0.00,,,0.00,WUHU21623XXSP,2013-08-07 23:17:00,
2013-08-07 16:22:00,73.6,56.8,30.00,WSW,247,2.2,4.5,56,0.00,,,0.00,WUHU21623XXSP,2013-08-07 23:22:00,
2013-08-07 16:27:00,73.6,56.8,30.00,SSW,202,1.3,4.5,55,0.00,,,0.00,WUHU21623XXSP,2013-08-07 23:27:00,
2013-08-07 16:32:00,73.8,55.5,30.00,West,270,3.6,6.7,53,0.00,,,0.00,WUHU21623XXSP,2013-08-07 23:32:00,
2013-08-07 16:37:00,73.8,55.5,30.00,WNW,292,0.9,6.7,53,0.00,,,0.00,WUHU21623XXSP,2013-08-07 23:37:00,
2013-08-07 16:42:00,73.8,55.5,30.00,SE,135,0.9,5.6,53,0.00,,,0.00,WUHU21623XXSP,2013-08-07 23:42:00,
2013-08-07 16:47:00,73.8,55.5,30.00,WNW,292,2.0,5.6,53,0.00,,,0.00,WUHU21623XXSP,2013-08-07 23:47:00,
2013-08-07 16:52:00,73.6,55.3,29.99,SSE,157,2.2,3.4,53,0.00,,,0.00,WUHU21623XXSP,2013-08-07 23:52:00,
2013-08-07 16:57:00,73.8,55.0,29.99,NNW,337,4.3,4.3,52,0.00,,,0.00,WUHU21623XXSP,2013-08-07 23:57:00,
2013-08-07 17:02:00,73.6,54.8,29.99,South,180,3.6,4.3,52,0.00,,,0.00,WUHU21623XXSP,2013-08-08 00:02:00,
2013-08-07 17:07:00,73.6,55.3,29.99,West,270,2.5,3.6,53,0.00,,,0.00,WUHU21623XXSP,2013-08-08 00:07:00,
2013-08-07 17:12:00,73.6,55.3,29.99,SSW,202,0.9,2.5,53,0.00,,,0.00,WUHU21623XXSP,2013-08-08 00:12:00,
2013-08-07 17:17:00,73.8,55.5,29.99,SW,225,5.1,5.6,53,0.00,,,0.00,WUHU21623XXSP,2013-08-08 00:17:00,
2013-08-07 17:22:00,73.9,55.1,30.00,West,270,4.5,5.6,52,0.00,,,0.00,WUHU21623XXSP,2013-08-08 00:22:00,
2013-08-07 17:27:00,74.3,55.3,29.99,WNW,292,4.9,4.9,51,0.00,,,0.00,WUHU21623XXSP,2013-08-08 00:27:00,
2013-08-07 17:32:00,74.5,54.7,29.99,SSE,157,6.5,6.5,50,0.00,,,0.00,WUHU21623XXSP,2013-08-08 00:32:00,
2013-08-07 17:37:00,74.5,54.1,29.99,SE,135,5.6,6.5,49,0.00,,,0.00,WUHU21623XXSP,2013-08-08 00:37:00,
2013-08-07 17:42:00,74.5,54.1,29.99,South,180,4.3,6.7,49,0.00,,,0.00,WUHU21623XXSP,2013-08-08 00:42:00,
2013-08-07 17:47:00,74.8,53.8,29.99,SW,225,2.9,6.7,48,0.00,,,0.00,WUHU21623XXSP,2013-08-08 00:47:00,
2013-08-07 17:52:00,75.0,54.6,29.99,SW,225,2.9,2.9,48,0.00,,,0.00,WUHU21623XXSP,2013-08-08 00:52:00,
2013-08-07 17:57:00,75.4,52.5,29.98,West,270,0.7,4.5,45,0.00,,,0.00,WUHU21623XXSP,2013-08-08 00:57:00,
2013-08-07 18:02:00,75.6,52.1,29.99,ENE,67,0.0,4.5,44,0.00,,,0.00,WUHU21623XXSP,2013-08-08 01:02:00,
2013-08-07 18:07:00,75.6,52.1,29.98,WNW,292,3.8,4.0,44,0.00,,,0.00,WUHU21623XXSP,2013-08-08 01:07:00,
2013-08-07 18:12:00,75.6,50.8,29.99,South,180,2.2,5.1,42,0.00,,,0.00,WUHU21623XXSP,2013-08-08 01:12:00,
2013-08-07 18:17:00,75.4,51.3,29.98,SSW,202,2.5,5.1,43,0.00,,,0.00,WUHU21623XXSP,2013-08-08 01:17:00,
2013-08-07 18:22:00,75.0,50.9,29.98,SSW,202,11.2,11.2,43,0.00,,,0.00,WUHU21623XXSP,2013-08-08 01:22:00,
2013-08-07 18:28:00,75.0,51.5,29.98,South,180,1.6,11.2,44,0.00,,,0.00,WUHU21623XXSP,2013-08-08 01:28:00,
2013-08-07 18:33:00,74.7,51.8,29.98,SSW,202,5.4,6.3,45,0.00,,,0.00,WUHU21623XXSP,2013-08-08 01:33:00,
2013-08-07 18:38:00,74.1,51.9,29.98,SSW,202,1.1,5.4,46,0.00,,,0.00,WUHU21623XXSP,2013-08-08 01:38:00,
2013-08-07 18:43:00,74.1,52.5,29.98,North,0,6.5,6.5,47,0.00,,,0.00,WUHU21623XXSP,2013-08-08 01:43:00,
2013-08-07 18:48:00,73.8,52.8,29.98,East,90,4.3,6.5,48,0.00,,,0.00,WUHU21623XXSP,2013-08-08 01:48:00,
2013-08-07 18:53:00,73.6,52.6,29.98,SSE,157,4.7,6.5,48,0.00,,,0.00,WUHU21623XXSP,2013-08-08 01:53:00,
2013-08-07 18:58:00,73.2,52.8,29.98,SSE,157,1.3,4.7,50,0.00,,,0.00,WUHU21623XXSP,2013-08-08 01:58:00,
2013-08-07 19:03:00,73.2,53.9,29.98,SW,225,0.9,4.7,51,0.00,,,0.00,WUHU21623XXSP,2013-08-08 02:03:00,
2013-08-07 19:08:00,73.0,54.3,29.98,South,180,1.8,2.2,52,0.00,,,0.00,WUHU21623XXSP,2013-08-08 02:08:00,
2013-08-07 19:13:00,72.9,55.1,29.98,South,180,2.0,4.3,54,0.00,,,0.00,WUHU21623XXSP,2013-08-08 02:13:00,
2013-08-07 19:18:00,72.7,55.0,29.97,South,180,0.0,4.3,54,0.00,,,0.00,WUHU21623XXSP,2013-08-08 02:18:00,
2013-08-07 19:23:00,72.5,56.3,29.98,West,270,0.0,2.2,57,0.00,,,0.00,WUHU21623XXSP,2013-08-08 02:23:00,
2013-08-07 19:28:00,72.3,56.2,29.97,SSW,202,2.0,8.3,58,0.00,,,0.00,WUHU21623XXSP,2013-08-08 02:28:00,
2013-08-07 19:33:00,72.1,57.0,29.98,WNW,292,0.0,8.3,59,0.00,,,0.00,WUHU21623XXSP,2013-08-08 02:33:00,
2013-08-07 19:38:00,72.1,57.5,29.97,South,180,1.6,1.8,61,0.00,,,0.00,WUHU21623XXSP,2013-08-08 02:38:00,
2013-08-07 19:43:00,72.0,57.8,29.97,South,180,3.8,3.8,62,0.00,,,0.00,WUHU21623XXSP,2013-08-08 02:43:00,
2013-08-07 19:48:00,71.8,58.0,29.98,West,270,0.0,3.8,62,0.00,,,0.00,WUHU21623XXSP,2013-08-08 02:48:00,
2013-08-07 19:53:00,71.8,58.9,29.97,WSW,247,4.5,4.5,64,0.00,,,0.00,WUHU21623XXSP,2013-08-08 02:53:00,
2013-08-07 19:58:00,71.6,59.6,29.98,NW,315,1.3,4.5,66,0.00,,,0.00,WUHU21623XXSP,2013-08-08 02:58:00,
2013-08-07 20:03:00,71.4,59.9,29.97,SE,135,2.0,4.5,67,0.00,,,0.00,WUHU21623XXSP,2013-08-08 03:03:00,
2013-08-07 20:08:00,71.4,60.3,29.98,WNW,292,0.0,2.5,68,0.00,,,0.00,WUHU21623XXSP,2013-08-08 03:08:00,
2013-08-07 20:13:00,71.4,61.2,29.97,WNW,292,1.6,2.2,70,0.00,,,0.00,WUHU21623XXSP,2013-08-08 03:13:00,
2013-08-07 20:18:00,71.2,61.5,29.98,SW,225,3.4,3.4,72,0.00,,,0.00,WUHU21623XXSP,2013-08-08 03:18:00,
2013-08-07 20:23:00,71.2,62.5,29.98,WSW,247,0.0,3.4,74,0.00,,,0.00,WUHU21623XXSP,2013-08-08 03:23:00,
2013-08-07 20:28:00,71.2,62.9,29.98,West,270,0.0,1.8,75,0.00,,,0.00,WUHU21623XXSP,2013-08-08 03:28:00,
2013-08-07 20:33:00,71.4,63.4,29.98,SSE,157,1.6,1.6,76,0.00,,,0.00,WUHU21623XXSP,2013-08-08 03:33:00,
2013-08-07 20:38:00,71.4,64.2,29.98,West,270,0.0,1.6,78,0.00,,,0.00,WUHU21623XXSP,2013-08-08 03:38:00,
2013-08-07 20:43:00,71.8,64.6,29.98,West,270,1.8,1.8,79,0.00,,,0.00,WUHU21623XXSP,2013-08-08 03:43:00,
2013-08-07 20:48:00,72.1,66.3,29.98,East,90,0.9,1.8,82,0.00,,,0.00,WUHU21623XXSP,2013-08-08 03:48:00,
2013-08-07 20:53:00,72.3,67.2,29.98,SSE,157,0.0,0.9,84,0.00,,,0.00,WUHU21623XXSP,2013-08-08 03:53:00,
2013-08-07 20:58:00,72.7,67.9,29.98,SSE,157,0.7,2.2,85,0.00,,,0.00,WUHU21623XXSP,2013-08-08 03:58:00,
2013-08-07 21:03:00,72.7,68.4,29.98,SE,135,0.0,2.2,86,0.00,,,0.00,WUHU21623XXSP,2013-08-08 04:03:00,
2013-08-07 21:08:00,73.0,69.3,29.98,SW,225,0.0,2.0,88,0.00,,,0.00,WUHU21623XXSP,2013-08-08 04:08:00,
2013-08-07 21:13:00,73.2,70.2,29.98,WNW,292,0.0,2.0,90,0.00,,,0.00,WUHU21623XXSP,2013-08-08 04:13:00,
2013-08-07 21:18:00,73.2,70.2,29.98,East,90,0.0,0.0,90,0.00,,,0.00,WUHU21623XXSP,2013-08-08 04:18:00,
2013-08-07 21:23:00,73.2,71.1,29.99,SE,135,0.9,0.9,93,0.00,,,0.00,WUHU21623XXSP,2013-08-08 04:23:00,
2013-08-07 21:28:00,73.4,71.6,29.99,SSW,202,0.0,0.9,94,0.00,,,0.00,WUHU21623XXSP,2013-08-08 04:28:00,
2013-08-07 21:33:00,73.2,71.4,29.99,SSW,202,0.0,0.9,96,0.00,,,0.00,WUHU21623XXSP,2013-08-08 04:33:00,
2013-08-07 21:38:00,73.2,72.3,30.00,WNW,292,2.5,2.5,97,0.00,,,0.00,WUHU21623XXSP,2013-08-08 04:38:00,
2013-08-07 21:43:00,73.2,72.6,29.99,WSW,247,0.7,2.5,98,0.00,,,0.00,WUHU21623XXSP,2013-08-08 04:43:00,
2013-08-07 21:48:00,73.2,72.9,29.99,ESE,112,0.0,2.5,99,0.00,,,0.00,WUHU21623XXSP,2013-08-08 04:48:00,
2013-08-07 21:53:00,73.2,72.9,29.99,South,180,0.0,0.0,99,0.00,,,0.00,WUHU21623XXSP,2013-08-08 04:53:00,
2013-08-07 21:58:00,73.2,72.9,29.99,SE,135,0.0,0.0,99,0.00,,,0.00,WUHU21623XXSP,2013-08-08 04:58:00,
2013-08-07 22:03:00,73.2,72.9,29.99,SE,135,0.0,0.0,99,0.00,,,0.00,WUHU21623XXSP,2013-08-08 05:03:00,
2013-08-07 22:08:00,73.6,73.3,29.99,South,180,2.5,2.5,99,0.00,,,0.00,WUHU21623XXSP,2013-08-08 05:08:00,
2013-08-07 22:13:00,73.6,73.3,29.99,SSE,157,0.7,2.5,99,0.00,,,0.00,WUHU21623XXSP,2013-08-08 05:13:00,
2013-08-07 22:18:00,73.6,73.3,29.99,WNW,292,0.0,0.9,99,0.00,,,0.00,WUHU21623XXSP,2013-08-08 05:18:00,
2013-08-07 22:23:00,73.6,73.3,29.99,West,270,1.8,1.8,99,0.00,,,0.00,WUHU21623XXSP,2013-08-08 05:23:00,
2013-08-07 22:28:00,73.6,73.3,29.99,South,180,0.0,1.8,99,0.00,,,0.00,WUHU21623XXSP,2013-08-08 05:28:00,
2013-08-07 22:33:00,73.6,73.3,29.98,WNW,292,0.0,2.5,99,0.00,,,0.00,WUHU21623XXSP,2013-08-08 05:33:00,
2013-08-07 22:38:00,73.8,73.3,29.99,SW,225,0.0,2.5,99,0.00,,,0.00,WUHU21623XXSP,2013-08-08 05:38:00,
2013-08-07 22:43:00,73.8,73.5,29.99,WNW,292,1.3,1.3,99,0.00,,,0.00,WUHU21623XXSP,2013-08-08 05:43:00,
2013-08-07 22:48:00,73.6,73.3,29.98,SSW,202,0.0,1.3,99,0.00,,,0.00,WUHU21623XXSP,2013-08-08 05:48:00,
2013-08-07 22:53:00,73.6,73.3,29.98,WNW,292,0.0,1.1,99,0.00,,,0.00,WUHU21623XXSP,2013-08-08 05:53:00,
2013-08-07 22:58:00,73.6,73.5,29.99,WSW,247,0.0,1.1,99,0.00,,,0.00,WUHU21623XXSP,2013-08-08 05:58:00,
2013-08-07 23:03:00,73.8,73.5,29.98,SW,225,0.0,0.0,99,0.00,,,0.00,WUHU21623XXSP,2013-08-08 06:03:00,
2013-08-07 23:08:00,73.8,73.5,29.99,ESE,112,0.9,1.8,99,0.00,,,0.00,WUHU21623XXSP,2013-08-08 06:08:00,
2013-08-07 23:13:00,73.8,73.5,29.98,SSW,202,2.0,2.0,99,0.00,,,0.00,WUHU21623XXSP,2013-08-08 06:13:00,
2013-08-07 23:18:00,73.8,73.5,29.98,WSW,247,2.5,2.5,99,0.00,,,0.00,WUHU21623XXSP,2013-08-08 06:18:00,
2013-08-07 23:23:00,73.9,73.6,29.98,WNW,292,0.0,2.5,99,0.00,,,0.00,WUHU21623XXSP,2013-08-08 06:23:00,
2013-08-07 23:28:00,74.1,73.6,29.98,NW,315,0.9,1.1,99,0.00,,,0.00,WUHU21623XXSP,2013-08-08 06:28:00,
2013-08-07 23:33:00,74.1,73.8,29.98,South,180,0.0,0.9,99,0.00,,,0.00,WUHU21623XXSP,2013-08-08 06:33:00,
2013-08-07 23:38:00,73.9,73.6,29.99,West,270,0.0,0.0,99,0.00,,,0.00,WUHU21623XXSP,2013-08-08 06:38:00,
2013-08-07 23:43:00,73.9,73.8,29.99,West,270,0.0,0.0,99,0.00,,,0.00,WUHU21623XXSP,2013-08-08 06:43:00,
2013-08-07 23:48:00,74.1,73.8,29.98,SSW,202,0.0,0.0,99,0.00,,,0.00,WUHU21623XXSP,2013-08-08 06:48:00,
2013-08-07 23:53:00,74.3,73.8,29.98,SW,225,1.3,1.3,99,0.00,,,0.00,WUHU21623XXSP,2013-08-08 06:53:00,
2013-08-07 23:58:00,74.3,74.0,29.99,South,180,0.0,1.3,99,0.00,,,0.00,WUHU21623XXSP,2013-08-08 06:58:00,